Orbital Elements at Epoch 2459200.5 (2020-Dec-17.0) TDB
Reference: JPL 14 (heliocentric ecliptic J2000)
Element | Value | Uncertainty (1-sigma) | Units |
e | .05834165612657094 | 8.3823e-08 | |
a | 5.217112815103882 | 1.8596e-07 | au |
q | 4.912737813271566 | 5.6851e-07 | au |
i | 13.3635305915052 | 6.0359e-06 | deg |
node | 259.5303951874921 | 3.9626e-05 | deg |
peri | 180.5213588150605 | 9.0353e-05 | deg |
M | 311.0924867419428 | 8.3202e-05 | deg |
tp | 2459791.812213596817 (2022-Jul-31.31221360) | 0.0010144 | TDB |
period | 4352.550001298314 11.92 | 0.00023272 6.372e-07 | d yr |
n | .08271013541317533 | 4.4223e-09 | deg/d |
Q | 5.521487816936199 | 1.9681e-07 | au |
|
| | Orbit Determination Parameters
Additional Information
|